Back to catalog

STARLINK-30125

AliveCommunicationsVLEO
NORAD 56701·PAYLOAD·🇺🇸 United States

Launched May 19, 2023 from Cape Canaveral Space Force Station

Loading…

Next Passes (next 24 hours)

TLE

FreshSource: CelesTrak SupGP

Epoch: Sep 15, 2026, 02:04 UTC

1 56701C 23067P   26258.08659722  .00016209  00000+0  58723-3 0  2582
2 56701  43.0008 281.4713 0001664 262.1840 169.9679 15.27562941    12

Track STARLINK-30125 in real time with AllMySat

Download on the App Store